Time,TemperatureF,DewpointF,PressureIn,WindDirection,WindDirectionDegrees,WindSpeedMPH,WindSpeedGustMPH,Humidity,HourlyPrecipIn,Conditions,Clouds,dailyrainin,SoftwareType,DateUTC
2013-08-05 00:02:00,86.5,64.6,29.87,SE,140,2.0,9.0,48,0.00,,,0.00,meteohub,2013-08-05 05:02:00,
2013-08-05 00:07:00,86.4,64.4,29.88,ESE,121,2.0,7.0,48,0.00,,,0.00,meteohub,2013-08-05 05:07:00,
2013-08-05 00:12:00,86.2,64.2,29.88,ESE,119,0.0,7.0,48,0.00,,,0.00,meteohub,2013-08-05 05:12:00,
2013-08-05 00:17:00,86.2,64.8,29.88,SE,131,0.0,8.0,49,0.00,,,0.00,meteohub,2013-08-05 05:17:00,
2013-08-05 00:22:00,86.0,64.6,29.88,ESE,114,4.0,8.0,49,0.00,,,0.00,meteohub,2013-08-05 05:22:00,
2013-08-05 00:27:00,85.8,64.4,29.88,ESE,118,7.0,8.0,49,0.00,,,0.00,meteohub,2013-08-05 05:27:00,
2013-08-05 00:32:00,85.6,64.9,29.88,ESE,123,0.0,9.0,50,0.00,,,0.00,meteohub,2013-08-05 05:32:00,
2013-08-05 00:37:00,85.5,64.8,29.88,SE,142,0.0,10.0,50,0.00,,,0.00,meteohub,2013-08-05 05:37:00,
2013-08-05 00:42:00,85.3,64.6,29.88,ESE,108,1.0,10.0,50,0.00,,,0.00,meteohub,2013-08-05 05:42:00,
2013-08-05 00:47:00,85.1,64.9,29.88,ESE,115,0.0,10.0,51,0.00,,,0.00,meteohub,2013-08-05 05:47:00,
2013-08-05 00:53:00,84.9,64.8,29.88,SE,146,0.0,6.0,51,0.00,,,0.00,meteohub,2013-08-05 05:53:00,
2013-08-05 00:58:00,84.7,64.6,29.88,ESE,121,0.0,8.0,51,0.00,,,0.00,meteohub,2013-08-05 05:58:00,
2013-08-05 01:02:00,84.6,64.9,29.88,SE,128,2.0,8.0,52,0.00,,,0.00,meteohub,2013-08-05 06:02:00,
2013-08-05 01:08:00,84.6,64.9,29.88,SSE,149,0.0,8.0,52,0.00,,,0.00,meteohub,2013-08-05 06:08:00,
2013-08-05 01:13:00,84.4,64.8,29.88,SE,126,0.0,8.0,52,0.00,,,0.00,meteohub,2013-08-05 06:13:00,
2013-08-05 01:17:00,84.4,64.8,29.88,ESE,123,0.0,8.0,52,0.00,,,0.00,meteohub,2013-08-05 06:17:00,
2013-08-05 01:23:00,84.2,64.6,29.88,ESE,118,0.0,8.0,52,0.00,,,0.00,meteohub,2013-08-05 06:23:00,
2013-08-05 01:28:00,84.0,65.1,29.87,SE,127,1.0,7.0,53,0.00,,,0.00,meteohub,2013-08-05 06:28:00,
2013-08-05 01:32:00,83.8,64.9,29.87,ESE,119,1.0,8.0,53,0.00,,,0.00,meteohub,2013-08-05 06:32:00,
2013-08-05 01:38:00,83.7,64.8,29.88,ESE,123,6.0,8.0,53,0.00,,,0.00,meteohub,2013-08-05 06:38:00,
2013-08-05 01:43:00,83.5,65.1,29.88,SE,126,2.0,8.0,54,0.00,,,0.00,meteohub,2013-08-05 06:43:00,
2013-08-05 01:48:00,83.3,64.9,29.88,SSE,150,0.0,7.0,54,0.00,,,0.00,meteohub,2013-08-05 06:48:00,
2013-08-05 01:53:00,83.1,64.8,29.87,SE,146,1.0,7.0,54,0.00,,,0.00,meteohub,2013-08-05 06:53:00,
2013-08-05 01:58:00,82.9,65.1,29.88,SE,128,2.0,7.0,55,0.00,,,0.00,meteohub,2013-08-05 06:58:00,
2013-08-05 02:03:00,82.8,64.9,29.88,SE,127,1.0,6.0,55,0.00,,,0.00,meteohub,2013-08-05 07:03:00,
2013-08-05 02:08:00,82.4,65.1,29.88,ESE,123,4.0,6.0,56,0.00,,,0.00,meteohub,2013-08-05 07:08:00,
2013-08-05 02:13:00,82.2,64.9,29.88,ESE,121,0.0,8.0,56,0.00,,,0.00,meteohub,2013-08-05 07:13:00,
2013-08-05 02:18:00,82.2,64.9,29.88,SE,137,0.0,8.0,56,0.00,,,0.00,meteohub,2013-08-05 07:18:00,
2013-08-05 02:23:00,82.0,65.3,29.88,SE,136,4.0,8.0,57,0.00,,,0.00,meteohub,2013-08-05 07:23:00,
2013-08-05 02:28:00,82.0,65.3,29.88,SE,132,4.0,9.0,57,0.00,,,0.00,meteohub,2013-08-05 07:28:00,
2013-08-05 02:33:00,82.0,65.3,29.88,SE,127,0.0,9.0,57,0.00,,,0.00,meteohub,2013-08-05 07:33:00,
2013-08-05 02:38:00,81.9,65.1,29.87,East,99,4.0,9.0,57,0.00,,,0.00,meteohub,2013-08-05 07:38:00,
2013-08-05 02:43:00,81.9,65.1,29.87,SE,143,0.0,9.0,57,0.00,,,0.00,meteohub,2013-08-05 07:43:00,
2013-08-05 02:48:00,81.7,65.5,29.87,SSE,150,2.0,7.0,58,0.00,,,0.00,meteohub,2013-08-05 07:48:00,
2013-08-05 02:53:00,81.7,65.5,29.88,SE,134,2.0,7.0,58,0.00,,,0.00,meteohub,2013-08-05 07:53:00,
2013-08-05 02:58:00,81.5,65.3,29.87,SSE,148,0.0,9.0,58,0.00,,,0.00,meteohub,2013-08-05 07:58:00,
2013-08-05 03:03:00,81.5,65.3,29.87,SE,146,0.0,9.0,58,0.00,,,0.00,meteohub,2013-08-05 08:03:00,
2013-08-05 03:08:00,81.3,65.7,29.88,SE,145,0.0,7.0,59,0.00,,,0.00,meteohub,2013-08-05 08:08:00,
2013-08-05 03:13:00,81.1,65.5,29.88,SSE,154,0.0,6.0,59,0.00,,,0.00,meteohub,2013-08-05 08:13:00,
2013-08-05 03:18:00,81.1,65.5,29.88,SSE,153,0.0,4.0,59,0.00,,,0.00,meteohub,2013-08-05 08:18:00,
2013-08-05 03:23:00,81.0,65.8,29.88,SSE,153,0.0,6.0,60,0.00,,,0.00,meteohub,2013-08-05 08:23:00,
2013-08-05 03:28:00,80.8,65.7,29.88,SSE,153,0.0,6.0,60,0.00,,,0.00,meteohub,2013-08-05 08:28:00,
2013-08-05 03:35:00,80.4,65.7,29.88,SSE,153,0.0,6.0,61,0.00,,,0.00,meteohub,2013-08-05 08:35:00,
2013-08-05 03:42:00,80.2,66.0,29.88,SSE,153,0.0,1.0,62,0.00,,,0.00,meteohub,2013-08-05 08:42:00,
2013-08-05 03:50:00,80.2,66.0,29.88,SSE,153,0.0,1.0,62,0.00,,,0.00,meteohub,2013-08-05 08:50:00,
2013-08-05 03:57:00,79.9,66.2,29.88,SSE,153,0.0,1.0,63,0.00,,,0.00,meteohub,2013-08-05 08:57:00,
2013-08-05 04:01:00,79.9,66.6,29.88,SSE,152,0.0,2.0,64,0.00,,,0.00,meteohub,2013-08-05 09:01:00,
2013-08-05 04:07:00,79.9,67.1,29.89,SSE,151,0.0,2.0,65,0.00,,,0.00,meteohub,2013-08-05 09:07:00,
2013-08-05 04:11:00,79.7,66.9,29.88,SSE,151,0.0,7.0,65,0.00,,,0.00,meteohub,2013-08-05 09:11:00,
2013-08-05 04:20:00,79.9,67.5,29.88,SE,144,0.0,7.0,66,0.00,,,0.00,meteohub,2013-08-05 09:20:00,
2013-08-05 04:27:00,80.1,67.6,29.88,SSE,147,0.0,8.0,66,0.00,,,0.00,meteohub,2013-08-05 09:27:00,
2013-08-05 04:32:00,80.1,67.6,29.88,SSE,147,0.0,8.0,66,0.00,,,0.00,meteohub,2013-08-05 09:32:00,
2013-08-05 04:38:00,80.1,67.6,29.88,SE,136,0.0,8.0,66,0.00,,,0.00,meteohub,2013-08-05 09:38:00,
2013-08-05 04:45:00,80.1,68.2,29.88,South,171,0.0,7.0,67,0.00,,,0.00,meteohub,2013-08-05 09:45:00,
2013-08-05 04:52:00,80.2,68.4,29.88,SSE,153,0.0,7.0,67,0.00,,,0.00,meteohub,2013-08-05 09:52:00,
2013-08-05 04:57:00,80.2,68.4,29.88,SSE,159,2.0,12.0,67,0.00,,,0.00,meteohub,2013-08-05 09:57:00,
2013-08-05 05:07:00,80.4,68.0,29.87,South,189,0.0,12.0,66,0.00,,,0.00,meteohub,2013-08-05 10:07:00,
2013-08-05 05:12:00,80.4,68.0,29.87,SSE,159,0.0,12.0,66,0.00,,,0.00,meteohub,2013-08-05 10:12:00,
2013-08-05 05:20:00,80.2,67.8,29.87,South,175,0.0,12.0,66,0.00,,,0.00,meteohub,2013-08-05 10:20:00,
2013-08-05 05:27:00,80.2,67.5,29.87,SSE,166,0.0,9.0,65,0.00,,,0.00,meteohub,2013-08-05 10:27:00,
2013-08-05 05:32:00,80.2,67.5,29.88,SSW,198,0.0,8.0,65,0.00,,,0.00,meteohub,2013-08-05 10:32:00,
2013-08-05 05:42:00,80.1,67.3,29.88,SSE,163,0.0,6.0,65,0.00,,,0.00,meteohub,2013-08-05 10:42:00,
2013-08-05 05:47:00,80.1,67.3,29.88,SSW,196,0.0,6.0,65,0.00,,,0.00,meteohub,2013-08-05 10:47:00,
2013-08-05 05:52:00,80.1,67.3,29.88,SSW,196,0.0,6.0,65,0.00,,,0.00,meteohub,2013-08-05 10:52:00,
2013-08-05 06:02:00,80.1,67.3,29.88,SSW,196,0.0,4.0,65,0.00,,,0.00,meteohub,2013-08-05 11:02:00,
2013-08-05 06:09:00,79.7,66.9,29.88,SSW,195,0.0,1.0,65,0.00,,,0.00,meteohub,2013-08-05 11:09:00,
2013-08-05 06:14:00,79.3,66.6,29.88,SSW,195,0.0,1.0,65,0.00,,,0.00,meteohub,2013-08-05 11:14:00,
2013-08-05 06:19:00,79.2,66.4,29.89,SSW,195,0.0,0.0,65,0.00,,,0.00,meteohub,2013-08-05 11:19:00,
2013-08-05 06:24:00,79.2,66.4,29.89,SSW,195,0.0,0.0,65,0.00,,,0.00,meteohub,2013-08-05 11:24:00,
2013-08-05 06:32:00,79.0,66.6,29.89,SSW,195,0.0,0.0,66,0.00,,,0.00,meteohub,2013-08-05 11:32:00,
2013-08-05 06:37:00,78.8,66.6,29.90,SSW,195,0.0,0.0,66,0.00,,,0.00,meteohub,2013-08-05 11:37:00,
2013-08-05 06:42:00,78.6,66.4,29.90,SSW,195,0.0,0.0,66,0.00,,,0.00,meteohub,2013-08-05 11:42:00,
2013-08-05 06:50:00,78.4,66.2,29.90,SSW,195,0.0,0.0,66,0.00,,,0.00,meteohub,2013-08-05 11:50:00,
2013-08-05 07:00:00,78.3,66.0,29.90,SSW,195,0.0,0.0,66,0.00,,,0.00,meteohub,2013-08-05 12:00:00,
2013-08-05 07:05:00,78.3,66.0,29.90,SSW,195,0.0,0.0,66,0.00,,,0.00,meteohub,2013-08-05 12:05:00,
2013-08-05 07:11:00,78.1,65.8,29.91,SSW,195,0.0,0.0,66,0.00,,,0.00,meteohub,2013-08-05 12:11:00,
2013-08-05 07:16:00,77.7,65.8,29.90,SSW,195,0.0,0.0,67,0.00,,,0.00,meteohub,2013-08-05 12:16:00,
2013-08-05 07:22:00,77.7,65.8,29.90,SSW,195,0.0,0.0,67,0.00,,,0.00,meteohub,2013-08-05 12:22:00,
2013-08-05 07:27:00,77.7,65.8,29.90,SSW,195,0.0,0.0,67,0.00,,,0.00,meteohub,2013-08-05 12:27:00,
2013-08-05 07:32:00,77.9,66.0,29.90,SSW,195,0.0,0.0,67,0.00,,,0.00,meteohub,2013-08-05 12:32:00,
2013-08-05 07:38:00,78.1,66.2,29.90,SSW,195,0.0,0.0,67,0.00,,,0.00,meteohub,2013-08-05 12:38:00,
2013-08-05 07:45:00,78.4,66.6,29.90,SSW,195,0.0,0.0,67,0.00,,,0.00,meteohub,2013-08-05 12:45:00,
2013-08-05 07:52:00,78.8,66.6,29.91,SSW,195,0.0,0.0,66,0.00,,,0.00,meteohub,2013-08-05 12:52:00,
2013-08-05 07:56:00,79.2,66.4,29.91,SSW,195,0.0,0.0,65,0.00,,,0.00,meteohub,2013-08-05 12:56:00,
2013-08-05 08:01:00,79.5,66.2,29.91,SSW,195,0.0,0.0,64,0.00,,,0.00,meteohub,2013-08-05 13:01:00,
2013-08-05 08:07:00,80.1,66.4,29.91,SSW,195,0.0,0.0,63,0.00,,,0.00,meteohub,2013-08-05 13:07:00,
2013-08-05 08:14:00,80.4,66.2,29.91,SSW,195,0.0,0.0,62,0.00,,,0.00,meteohub,2013-08-05 13:14:00,
2013-08-05 08:19:00,80.8,66.6,29.91,SSW,195,0.0,0.0,62,0.00,,,0.00,meteohub,2013-08-05 13:19:00,
2013-08-05 08:26:00,81.0,66.2,29.91,SSW,195,0.0,0.0,61,0.00,,,0.00,meteohub,2013-08-05 13:26:00,
2013-08-05 08:35:00,82.2,66.0,29.92,SSW,194,0.0,2.0,58,0.00,,,0.00,meteohub,2013-08-05 13:35:00,
2013-08-05 08:42:00,82.9,65.7,29.92,South,190,1.0,5.0,56,0.00,,,0.00,meteohub,2013-08-05 13:42:00,
2013-08-05 08:49:00,82.9,65.7,29.92,South,190,0.0,5.0,56,0.00,,,0.00,meteohub,2013-08-05 13:49:00,
2013-08-05 08:54:00,83.3,65.5,29.92,WSW,240,0.0,5.0,55,0.00,,,0.00,meteohub,2013-08-05 13:54:00,
2013-08-05 09:02:00,83.7,65.8,29.92,SW,229,0.0,6.0,55,0.00,,,0.00,meteohub,2013-08-05 14:02:00,
2013-08-05 09:07:00,84.0,65.1,29.92,SW,229,0.0,6.0,53,0.00,,,0.00,meteohub,2013-08-05 14:07:00,
2013-08-05 09:11:00,84.2,64.6,29.92,SW,227,3.0,5.0,52,0.00,,,0.00,meteohub,2013-08-05 14:11:00,
2013-08-05 09:17:00,84.4,64.8,29.92,SW,229,2.0,5.0,52,0.00,,,0.00,meteohub,2013-08-05 14:17:00,
2013-08-05 09:23:00,84.4,64.8,29.92,SW,229,0.0,5.0,52,0.00,,,0.00,meteohub,2013-08-05 14:23:00,
2013-08-05 09:30:00,84.9,64.8,29.92,WSW,247,1.0,5.0,51,0.00,,,0.00,meteohub,2013-08-05 14:30:00,
2013-08-05 09:36:00,85.5,64.0,29.92,SW,219,0.0,7.0,49,0.00,,,0.00,meteohub,2013-08-05 14:36:00,
2013-08-05 09:42:00,85.5,64.0,29.92,SW,217,0.0,7.0,49,0.00,,,0.00,meteohub,2013-08-05 14:42:00,
2013-08-05 09:48:00,85.5,64.0,29.92,SSE,166,0.0,7.0,49,0.00,,,0.00,meteohub,2013-08-05 14:48:00,
2013-08-05 09:54:00,85.5,63.0,29.92,WSW,242,0.0,5.0,47,0.00,,,0.00,meteohub,2013-08-05 14:54:00,
2013-08-05 10:02:00,86.2,64.2,29.92,SW,228,3.0,10.0,48,0.00,,,0.00,meteohub,2013-08-05 15:02:00,
2013-08-05 10:07:00,85.8,63.9,29.92,South,179,4.0,10.0,48,0.00,,,0.00,meteohub,2013-08-05 15:07:00,
2013-08-05 10:13:00,86.0,64.0,29.92,SW,216,0.0,7.0,48,0.00,,,0.00,meteohub,2013-08-05 15:13:00,
2013-08-05 10:19:00,86.2,63.5,29.92,SW,215,1.0,8.0,47,0.00,,,0.00,meteohub,2013-08-05 15:19:00,
2013-08-05 10:24:00,86.7,64.0,29.92,SSW,209,0.0,10.0,47,0.00,,,0.00,meteohub,2013-08-05 15:24:00,
2013-08-05 10:32:00,87.3,64.0,29.92,SW,227,7.0,11.0,46,0.00,,,0.00,meteohub,2013-08-05 15:32:00,
2013-08-05 10:37:00,87.3,64.0,29.92,SSW,194,0.0,11.0,46,0.00,,,0.00,meteohub,2013-08-05 15:37:00,
2013-08-05 10:42:00,88.0,64.6,29.92,SW,232,2.0,11.0,46,0.00,,,0.00,meteohub,2013-08-05 15:42:00,
2013-08-05 10:46:00,88.5,63.9,29.92,SW,221,4.0,11.0,44,0.00,,,0.00,meteohub,2013-08-05 15:46:00,
2013-08-05 10:53:00,88.5,63.9,29.92,SW,221,2.0,11.0,44,0.00,,,0.00,meteohub,2013-08-05 15:53:00,
2013-08-05 10:59:00,89.1,63.7,29.92,SW,235,7.0,8.0,43,0.00,,,0.00,meteohub,2013-08-05 15:59:00,
2013-08-05 11:07:00,89.4,64.0,29.91,WSW,239,7.0,12.0,43,0.00,,,0.00,meteohub,2013-08-05 16:07:00,
2013-08-05 11:12:00,89.6,62.8,29.91,SSW,208,1.0,12.0,41,0.00,,,0.00,meteohub,2013-08-05 16:12:00,
2013-08-05 11:18:00,89.6,62.1,29.91,SSW,192,2.0,12.0,40,0.00,,,0.00,meteohub,2013-08-05 16:18:00,
2013-08-05 11:23:00,89.8,63.0,29.91,SW,234,8.0,12.0,41,0.00,,,0.00,meteohub,2013-08-05 16:23:00,
2013-08-05 11:32:00,90.0,62.4,29.91,SSW,202,1.0,12.0,40,0.00,,,0.00,meteohub,2013-08-05 16:32:00,
2013-08-05 11:41:00,90.3,64.0,29.91,SW,223,5.0,12.0,42,0.00,,,0.00,meteohub,2013-08-05 16:41:00,
2013-08-05 11:47:00,91.6,63.1,29.91,SW,227,6.0,14.0,39,0.00,,,0.00,meteohub,2013-08-05 16:47:00,
2013-08-05 11:52:00,91.9,64.2,29.91,SW,219,7.0,12.0,40,0.00,,,0.00,meteohub,2013-08-05 16:52:00,
2013-08-05 11:59:00,91.9,64.2,29.90,SW,224,8.0,12.0,40,0.00,,,0.00,meteohub,2013-08-05 16:59:00,
2013-08-05 12:07:00,92.5,63.9,29.90,WSW,244,2.0,11.0,39,0.00,,,0.00,meteohub,2013-08-05 17:07:00,
2013-08-05 12:12:00,92.8,64.2,29.90,SSW,207,2.0,11.0,39,0.00,,,0.00,meteohub,2013-08-05 17:12:00,
2013-08-05 12:16:00,92.8,63.5,29.89,SW,236,4.0,12.0,38,0.00,,,0.00,meteohub,2013-08-05 17:16:00,
2013-08-05 12:22:00,93.0,63.7,29.89,South,169,0.0,13.0,38,0.00,,,0.00,meteohub,2013-08-05 17:22:00,
2013-08-05 12:29:00,93.6,63.3,29.89,WSW,243,2.0,13.0,37,0.00,,,0.00,meteohub,2013-08-05 17:29:00,
2013-08-05 12:36:00,94.3,64.0,29.89,SSW,204,4.0,14.0,37,0.00,,,0.00,meteohub,2013-08-05 17:36:00,
2013-08-05 12:43:00,94.5,64.2,29.88,South,175,0.0,14.0,37,0.00,,,0.00,meteohub,2013-08-05 17:43:00,
2013-08-05 12:50:00,94.8,63.7,29.88,SW,236,1.0,10.0,36,0.00,,,0.00,meteohub,2013-08-05 17:50:00,
2013-08-05 12:55:00,95.2,64.8,29.88,SSW,206,0.0,10.0,37,0.00,,,0.00,meteohub,2013-08-05 17:55:00,
2013-08-05 13:01:00,95.5,63.5,29.87,SW,229,2.0,10.0,35,0.00,,,0.00,meteohub,2013-08-05 18:01:00,
2013-08-05 13:07:00,96.1,64.0,29.87,SSW,211,5.0,9.0,35,0.00,,,0.00,meteohub,2013-08-05 18:07:00,
2013-08-05 13:12:00,96.4,63.5,29.87,SW,232,0.0,11.0,34,0.00,,,0.00,meteohub,2013-08-05 18:12:00,
2013-08-05 13:17:00,96.6,64.4,29.87,WSW,239,7.0,11.0,35,0.00,,,0.00,meteohub,2013-08-05 18:17:00,
2013-08-05 13:24:00,96.6,64.4,29.87,SW,231,0.0,13.0,35,0.00,,,0.00,meteohub,2013-08-05 18:24:00,
2013-08-05 13:30:00,97.0,64.0,29.87,WSW,240,5.0,13.0,34,0.00,,,0.00,meteohub,2013-08-05 18:30:00,
2013-08-05 13:37:00,97.3,64.2,29.86,SSW,199,4.0,11.0,34,0.00,,,0.00,meteohub,2013-08-05 18:37:00,
2013-08-05 13:43:00,97.5,63.5,29.86,SSW,205,4.0,11.0,33,0.00,,,0.00,meteohub,2013-08-05 18:43:00,
2013-08-05 13:50:00,97.9,63.0,29.86,SW,229,5.0,14.0,32,0.00,,,0.00,meteohub,2013-08-05 18:50:00,
2013-08-05 13:58:00,97.5,62.8,29.86,SSW,193,3.0,14.0,32,0.00,,,0.00,meteohub,2013-08-05 18:58:00,
2013-08-05 14:06:00,98.1,62.2,29.85,SW,227,0.0,15.0,31,0.00,,,0.00,meteohub,2013-08-05 19:06:00,
2013-08-05 14:14:00,98.2,62.4,29.84,SE,139,4.0,11.0,31,0.00,,,0.00,meteohub,2013-08-05 19:14:00,
2013-08-05 14:22:00,97.5,61.9,29.84,SSE,155,4.0,17.0,31,0.00,,,0.00,meteohub,2013-08-05 19:22:00,
2013-08-05 14:30:00,97.9,62.1,29.83,South,172,4.0,17.0,31,0.00,,,0.00,meteohub,2013-08-05 19:30:00,
2013-08-05 14:38:00,98.2,61.5,29.83,SE,128,0.0,14.0,30,0.00,,,0.00,meteohub,2013-08-05 19:38:00,
2013-08-05 14:43:00,99.0,62.1,29.83,South,181,7.0,12.0,30,0.00,,,0.00,meteohub,2013-08-05 19:43:00,
2013-08-05 14:51:00,99.1,62.2,29.83,SE,132,6.0,12.0,30,0.00,,,0.00,meteohub,2013-08-05 19:51:00,
2013-08-05 14:57:00,99.0,61.2,29.82,SW,223,0.0,13.0,29,0.00,,,0.00,meteohub,2013-08-05 19:57:00,
2013-08-05 15:05:00,99.1,61.3,29.82,SSE,168,0.0,13.0,29,0.00,,,0.00,meteohub,2013-08-05 20:05:00,
2013-08-05 15:10:00,99.7,62.8,29.82,SSE,167,0.0,13.0,30,0.00,,,0.00,meteohub,2013-08-05 20:10:00,
2013-08-05 15:15:00,99.5,61.5,29.82,SW,225,4.0,9.0,29,0.00,,,0.00,meteohub,2013-08-05 20:15:00,
2013-08-05 15:22:00,99.7,62.8,29.81,ESE,120,2.0,12.0,30,0.00,,,0.00,meteohub,2013-08-05 20:22:00,
2013-08-05 15:27:00,99.9,63.0,29.81,SW,219,0.0,12.0,30,0.00,,,0.00,meteohub,2013-08-05 20:27:00,
2013-08-05 15:32:00,99.9,61.9,29.81,SW,227,7.0,10.0,29,0.00,,,0.00,meteohub,2013-08-05 20:32:00,
2013-08-05 15:37:00,99.7,62.8,29.81,SSW,213,9.0,12.0,30,0.00,,,0.00,meteohub,2013-08-05 20:37:00,
2013-08-05 15:43:00,99.7,62.8,29.80,SSE,150,0.0,12.0,30,0.00,,,0.00,meteohub,2013-08-05 20:43:00,
2013-08-05 15:48:00,100.2,61.2,29.80,SW,236,5.0,12.0,28,0.00,,,0.00,meteohub,2013-08-05 20:48:00,
2013-08-05 15:54:00,100.2,61.2,29.80,SE,128,0.0,11.0,28,0.00,,,0.00,meteohub,2013-08-05 20:54:00,
2013-08-05 15:59:00,100.2,62.2,29.80,SSW,204,2.0,11.0,29,0.00,,,0.00,meteohub,2013-08-05 20:59:00,
2013-08-05 16:05:00,100.4,62.4,29.80,WSW,247,10.0,11.0,29,0.00,,,0.00,meteohub,2013-08-05 21:05:00,
2013-08-05 16:12:00,100.2,60.3,29.79,SW,236,0.0,15.0,27,0.00,,,0.00,meteohub,2013-08-05 21:12:00,
2013-08-05 16:17:00,100.2,62.2,29.79,SW,226,0.0,15.0,29,0.00,,,0.00,meteohub,2013-08-05 21:17:00,
2013-08-05 16:23:00,100.2,62.2,29.79,SW,227,0.0,15.0,29,0.00,,,0.00,meteohub,2013-08-05 21:23:00,
2013-08-05 16:30:00,100.8,60.6,29.79,SSW,211,0.0,12.0,27,0.00,,,0.00,meteohub,2013-08-05 21:30:00,
2013-08-05 16:37:00,101.1,61.0,29.78,SSW,205,4.0,11.0,27,0.00,,,0.00,meteohub,2013-08-05 21:37:00,
2013-08-05 16:42:00,100.8,60.6,29.78,SE,145,4.0,13.0,27,0.00,,,0.00,meteohub,2013-08-05 21:42:00,
2013-08-05 16:49:00,100.6,61.5,29.78,SSE,165,0.0,13.0,28,0.00,,,0.00,meteohub,2013-08-05 21:49:00,
2013-08-05 16:54:00,100.9,60.8,29.77,South,184,2.0,13.0,27,0.00,,,0.00,meteohub,2013-08-05 21:54:00,
2013-08-05 17:01:00,100.9,61.9,29.77,SSW,194,1.0,13.0,28,0.00,,,0.00,meteohub,2013-08-05 22:01:00,
2013-08-05 17:07:00,101.3,61.2,29.77,ESE,118,2.0,11.0,27,0.00,,,0.00,meteohub,2013-08-05 22:07:00,
2013-08-05 17:13:00,101.3,62.1,29.77,SSE,154,7.0,11.0,28,0.00,,,0.00,meteohub,2013-08-05 22:13:00,
2013-08-05 17:21:00,101.1,62.1,29.77,SSE,161,0.0,12.0,28,0.00,,,0.00,meteohub,2013-08-05 22:21:00,
2013-08-05 17:26:00,101.5,62.2,29.77,SW,219,0.0,12.0,28,0.00,,,0.00,meteohub,2013-08-05 22:26:00,
2013-08-05 17:32:00,101.5,61.3,29.77,SE,134,0.0,12.0,27,0.00,,,0.00,meteohub,2013-08-05 22:32:00,
2013-08-05 17:37:00,101.5,62.2,29.77,South,174,4.0,12.0,28,0.00,,,0.00,meteohub,2013-08-05 22:37:00,
2013-08-05 17:42:00,101.5,62.2,29.77,SSE,157,1.0,12.0,28,0.00,,,0.00,meteohub,2013-08-05 22:42:00,
2013-08-05 17:47:00,100.9,60.8,29.76,SE,144,2.0,12.0,27,0.00,,,0.00,meteohub,2013-08-05 22:47:00,
2013-08-05 17:52:00,100.8,60.6,29.76,SSE,156,2.0,12.0,27,0.00,,,0.00,meteohub,2013-08-05 22:52:00,
2013-08-05 17:58:00,100.8,61.7,29.76,SSE,166,10.0,12.0,28,0.00,,,0.00,meteohub,2013-08-05 22:58:00,
2013-08-05 18:03:00,100.6,61.5,29.76,SE,138,6.0,10.0,28,0.00,,,0.00,meteohub,2013-08-05 23:03:00,
2013-08-05 18:10:00,100.6,60.4,29.76,SSE,150,0.0,10.0,27,0.00,,,0.00,meteohub,2013-08-05 23:10:00,
2013-08-05 18:17:00,100.0,61.2,29.75,SSE,149,0.0,15.0,28,0.00,,,0.00,meteohub,2013-08-05 23:17:00,
2013-08-05 18:23:00,100.0,61.2,29.75,ESE,109,1.0,15.0,28,0.00,,,0.00,meteohub,2013-08-05 23:23:00,
2013-08-05 18:28:00,100.0,61.2,29.75,SE,140,0.0,13.0,28,0.00,,,0.00,meteohub,2013-08-05 23:28:00,
2013-08-05 18:33:00,99.9,61.0,29.75,SSE,150,11.0,13.0,28,0.00,,,0.00,meteohub,2013-08-05 23:33:00,
2013-08-05 18:38:00,99.9,61.0,29.75,South,188,0.0,13.0,28,0.00,,,0.00,meteohub,2013-08-05 23:38:00,
2013-08-05 18:45:00,99.9,61.0,29.75,South,188,0.0,13.0,28,0.00,,,0.00,meteohub,2013-08-05 23:45:00,
2013-08-05 18:50:00,100.0,60.1,29.75,South,178,4.0,13.0,27,0.00,,,0.00,meteohub,2013-08-05 23:50:00,
2013-08-05 18:55:00,100.0,61.2,29.75,SW,229,2.0,13.0,28,0.00,,,0.00,meteohub,2013-08-05 23:55:00,
2013-08-05 19:02:00,99.5,60.6,29.74,SSW,197,0.0,14.0,28,0.00,,,0.00,meteohub,2013-08-06 00:02:00,
2013-08-05 19:07:00,99.3,59.4,29.74,SSE,159,8.0,14.0,27,0.00,,,0.00,meteohub,2013-08-06 00:07:00,
2013-08-05 19:12:00,99.0,60.1,29.74,SE,130,5.0,14.0,28,0.00,,,0.00,meteohub,2013-08-06 00:12:00,
2013-08-05 19:18:00,99.0,60.1,29.73,SE,145,0.0,14.0,28,0.00,,,0.00,meteohub,2013-08-06 00:18:00,
2013-08-05 19:23:00,98.8,60.1,29.73,South,180,5.0,17.0,28,0.00,,,0.00,meteohub,2013-08-06 00:23:00,
2013-08-05 19:30:00,98.6,59.9,29.73,SE,136,2.0,17.0,28,0.00,,,0.00,meteohub,2013-08-06 00:30:00,
2013-08-05 19:36:00,98.2,60.4,29.73,SE,139,1.0,17.0,29,0.00,,,0.00,meteohub,2013-08-06 00:36:00,
2013-08-05 19:42:00,97.9,60.3,29.73,SE,131,2.0,13.0,29,0.00,,,0.00,meteohub,2013-08-06 00:42:00,
2013-08-05 19:47:00,97.7,60.1,29.73,SE,128,0.0,12.0,29,0.00,,,0.00,meteohub,2013-08-06 00:47:00,
2013-08-05 19:52:00,97.5,59.9,29.73,SE,141,4.0,11.0,29,0.00,,,0.00,meteohub,2013-08-06 00:52:00,
2013-08-05 19:57:00,97.3,59.7,29.73,SE,142,2.0,11.0,29,0.00,,,0.00,meteohub,2013-08-06 00:57:00,
2013-08-05 20:04:00,97.3,59.7,29.73,SSE,153,2.0,11.0,29,0.00,,,0.00,meteohub,2013-08-06 01:04:00,
2013-08-05 20:12:00,96.4,59.9,29.73,SE,146,2.0,10.0,30,0.00,,,0.00,meteohub,2013-08-06 01:12:00,
2013-08-05 20:17:00,96.3,59.7,29.73,SSE,148,6.0,10.0,30,0.00,,,0.00,meteohub,2013-08-06 01:17:00,
2013-08-05 20:22:00,96.1,59.5,29.73,SSE,155,0.0,10.0,30,0.00,,,0.00,meteohub,2013-08-06 01:22:00,
2013-08-05 20:28:00,95.5,60.1,29.73,SE,142,0.0,10.0,31,0.00,,,0.00,meteohub,2013-08-06 01:28:00,
2013-08-05 20:36:00,95.4,59.9,29.73,SE,138,4.0,10.0,31,0.00,,,0.00,meteohub,2013-08-06 01:36:00,
2013-08-05 20:42:00,94.5,59.2,29.73,SSE,165,0.0,7.0,31,0.00,,,0.00,meteohub,2013-08-06 01:42:00,
2013-08-05 20:47:00,94.1,59.7,29.74,SE,138,0.0,7.0,32,0.00,,,0.00,meteohub,2013-08-06 01:47:00,
2013-08-05 20:52:00,93.7,59.4,29.73,South,178,0.0,6.0,32,0.00,,,0.00,meteohub,2013-08-06 01:52:00,
2013-08-05 20:57:00,93.6,59.2,29.74,SSE,151,2.0,6.0,32,0.00,,,0.00,meteohub,2013-08-06 01:57:00,
2013-08-05 21:10:00,92.8,59.5,29.74,SSE,153,0.0,7.0,33,0.00,,,0.00,meteohub,2013-08-06 02:10:00,
2013-08-05 21:15:00,92.5,60.1,29.74,SE,128,0.0,8.0,34,0.00,,,0.00,meteohub,2013-08-06 02:15:00,
2013-08-05 21:21:00,92.1,59.7,29.74,SE,140,1.0,8.0,34,0.00,,,0.00,meteohub,2013-08-06 02:21:00,
2013-08-05 21:27:00,91.8,60.3,29.75,SE,144,0.0,8.0,35,0.00,,,0.00,meteohub,2013-08-06 02:27:00,
2013-08-05 21:32:00,91.6,60.1,29.75,SSE,155,0.0,8.0,35,0.00,,,0.00,meteohub,2013-08-06 02:32:00,
2013-08-05 21:37:00,91.4,59.9,29.75,SE,141,2.0,7.0,35,0.00,,,0.00,meteohub,2013-08-06 02:37:00,
2013-08-05 21:42:00,91.2,59.7,29.75,SSE,155,0.0,8.0,35,0.00,,,0.00,meteohub,2013-08-06 02:42:00,
2013-08-05 21:47:00,91.0,59.5,29.75,South,177,0.0,9.0,35,0.00,,,0.00,meteohub,2013-08-06 02:47:00,
2013-08-05 21:52:00,90.9,60.3,29.75,SSE,168,2.0,9.0,36,0.00,,,0.00,meteohub,2013-08-06 02:52:00,
2013-08-05 21:57:00,90.7,60.1,29.75,SE,138,0.0,9.0,36,0.00,,,0.00,meteohub,2013-08-06 02:57:00,
2013-08-05 22:02:00,90.3,59.7,29.75,SE,143,0.0,6.0,36,0.00,,,0.00,meteohub,2013-08-06 03:02:00,
2013-08-05 22:07:00,90.1,59.5,29.75,SSE,164,0.0,5.0,36,0.00,,,0.00,meteohub,2013-08-06 03:07:00,
2013-08-05 22:12:00,90.0,59.4,29.76,South,188,0.0,7.0,36,0.00,,,0.00,meteohub,2013-08-06 03:12:00,
2013-08-05 22:17:00,89.8,59.2,29.76,South,182,0.0,7.0,36,0.00,,,0.00,meteohub,2013-08-06 03:17:00,
2013-08-05 22:22:00,89.8,59.2,29.76,South,170,0.0,7.0,36,0.00,,,0.00,meteohub,2013-08-06 03:22:00,
2013-08-05 22:30:00,89.4,59.7,29.76,SSE,165,0.0,7.0,37,0.00,,,0.00,meteohub,2013-08-06 03:30:00,
2013-08-05 22:35:00,89.2,59.5,29.76,SSE,162,0.0,2.0,37,0.00,,,0.00,meteohub,2013-08-06 03:35:00,
2013-08-05 22:43:00,89.1,59.4,29.76,SSW,192,0.0,6.0,37,0.00,,,0.00,meteohub,2013-08-06 03:43:00,
2013-08-05 22:51:00,88.9,59.2,29.77,SSE,154,0.0,6.0,37,0.00,,,0.00,meteohub,2013-08-06 03:51:00,
2013-08-05 22:56:00,88.9,59.2,29.77,SSW,193,0.0,5.0,37,0.00,,,0.00,meteohub,2013-08-06 03:56:00,
2013-08-05 23:01:00,88.5,59.0,29.76,South,187,0.0,5.0,37,0.00,,,0.00,meteohub,2013-08-06 04:01:00,
2013-08-05 23:02:00,88.5,59.0,29.76,SSE,161,0.0,5.0,37,0.00,,,0.00,meteohub,2013-08-06 04:02:00,
2013-08-05 23:07:00,88.3,59.5,29.76,South,188,1.0,5.0,38,0.00,,,0.00,meteohub,2013-08-06 04:07:00,
2013-08-05 23:12:00,88.2,59.4,29.77,SSW,200,0.0,9.0,38,0.00,,,0.00,meteohub,2013-08-06 04:12:00,
2013-08-05 23:17:00,88.0,59.2,29.77,SW,215,0.0,9.0,38,0.00,,,0.00,meteohub,2013-08-06 04:17:00,
2013-08-05 23:22:00,88.0,59.2,29.77,South,170,2.0,8.0,38,0.00,,,0.00,meteohub,2013-08-06 04:22:00,
2013-08-05 23:27:00,88.0,59.2,29.77,South,182,0.0,8.0,38,0.00,,,0.00,meteohub,2013-08-06 04:27:00,
2013-08-05 23:32:00,87.8,59.0,29.77,SW,234,2.0,8.0,38,0.00,,,0.00,meteohub,2013-08-06 04:32:00,
2013-08-05 23:37:00,87.6,58.8,29.77,SE,131,7.0,7.0,38,0.00,,,0.00,meteohub,2013-08-06 04:37:00,
2013-08-05 23:42:00,87.4,58.6,29.77,SSW,212,5.0,9.0,38,0.00,,,0.00,meteohub,2013-08-06 04:42:00,
2013-08-05 23:47:00,87.1,59.2,29.77,South,184,0.0,9.0,39,0.00,,,0.00,meteohub,2013-08-06 04:47:00,
2013-08-05 23:52:00,86.9,59.0,29.77,South,179,0.0,9.0,39,0.00,,,0.00,meteohub,2013-08-06 04:52:00,
2013-08-05 23:57:00,86.7,58.8,29.77,SW,215,0.0,9.0,39,0.00,,,0.00,meteohub,2013-08-06 04:57:00,